Location: Buena Vista
(37.7110°N, 119.7938°W)
Time: 10:10:37
(UTC+00:00)

Cosmos-2242 - Pass Details

Date: 13 June 2024
Orbit: 578 x 604 km, 82.5° (Epoch: 18 July)

Event Time Altitude Azimuth Distance (km) Brightness Sun altitude
Rises 11:58:35 0° 354° (N) 2,865 6.9 -7.1°
Reaches altitude 10° 12:00:49 10° 356° (N) 1,955 6.1 -6.8°
Maximum altitude 12:05:09 75° 83° (E) 625 3.3 -6.1°
Drops below altitude 10° 12:09:24 10° 168° (SSE) 1,926 5.4 -5.4°
Sets 12:11:36 0° 170° (S) 2,819 6.2 -5.0°
